Regional Weather Roundup
Issued by NWS

Home | Current Version | Previous Version | Graphics & Text | Print | Product List | Glossary On
Versions: 1 2 3 4 5 6 7 8 9 10 11 12 13 14 15 16 17 18 19 20 21 22 23 24 25 26 27 28 29 30 31 32 33 34 35 36 37 38 39 40 41 42 43 44 45 46 47 48 49 50
000
ASUS43 KBIS 192120
RWRND

NORTH DAKOTA REGIONAL WEATHER ROUNDUP
NATIONAL WEATHER SERVICE BISMARCK ND
400 PM CDT FRI SEP 19 2014

NOTE: "FAIR" INDICATES FEW OR NO CLOUDS BELOW 12,000 FEET WITH NO
SIGNIFICANT WEATHER AND/OR OBSTRUCTIONS TO VISIBILITY.


NDZ001>003-009>011-017-192200-
NORTHWEST NORTH DAKOTA

CITY           SKY/WX    TMP DP  RH WIND       PRES   REMARKS
WILLISTON      MOSUNNY   77  49  37 NW22G33   29.71R
MINOT          SUNNY     79  50  36 W23G35    29.59R
MINOT AFB      SUNNY     81  48  32 W24       29.55R
$$

NDZ018>021-031>035-040>046-192200-
SOUTHWEST NORTH DAKOTA

CITY           SKY/WX    TMP DP  RH WIND       PRES   REMARKS
BISMARCK       MOSUNNY   87  49  26 W23G31    29.64F
DICKINSON      PTSUNNY   78  48  34 W22G37    29.72S
GARRISON         N/A     82  49  31 W22G36    29.61R
HETTINGER ARPT SUNNY     80  48  32 W22G32    29.77S
$$

NDZ004>008-012>016-024-026-027-054-192200-
NORTHEAST NORTH DAKOTA

CITY           SKY/WX    TMP DP  RH WIND       PRES   REMARKS
GRAND FORKS    MOSUNNY   82  62  50 W13       29.49F
GRND FRKS AFB  MOSUNNY   83  62  48 W10       29.50F
DEVILS LAKE    SUNNY     82  52  34 W18G25    29.52S
$$

NDZ022-023-025-028>030-036>039-047>053-192200-
SOUTHEAST NORTH DAKOTA

CITY           SKY/WX    TMP DP  RH WIND       PRES   REMARKS
FARGO          SUNNY     78  64  61 S16G24    29.55F
JAMESTOWN      SUNNY     82  53  36 W16G23    29.58S
$$




USA.gov is the U.S. government's official web portal to all federal, state and local government web resources and services.